| time (UTC) | temp C | wind direction | speed KPH | gust KPH | rain 1hr cm | rain 24hr cm | rain mn cm | humidity % | barometer mb |
| 20260906201011 | 29 | 141 | 14.5 | 25.7 | 0.00 | 3.38 | 3.38 | 60 | 1015.2 |
| 20260906200516 | 29 | 139 | 11.3 | 25.7 | 0.00 | 3.38 | 3.38 | 60 | 1015.0 |
| 20260906200035 | 29 | 122 | 12.9 | 22.5 | 0.00 | 3.38 | 3.38 | 62 | 1015.3 |
| 20260906195514 | 29 | 160 | 9.7 | 24.1 | 0.00 | 3.38 | 3.38 | 60 | 1015.3 |
| 20260906195014 | 28 | 179 | 12.9 | 24.1 | 0.00 | 3.38 | 3.38 | 61 | 1015.4 |
| 20260906194531 | 28 | 157 | 11.3 | 30.6 | 0.00 | 3.38 | 3.38 | 61 | 1015.3 |
| 20260906194019 | 29 | 180 | 11.3 | 30.6 | 0.00 | 3.38 | 3.38 | 62 | 1015.3 |
| 20260906193511 | 29 | 146 | 9.7 | 25.7 | 0.00 | 3.38 | 3.38 | 61 | 1015.4 |
| 20260906193016 | 29 | 148 | 8.0 | 22.5 | 0.00 | 3.38 | 3.38 | 62 | 1015.5 |
| 20260906192516 | 29 | 165 | 11.3 | 24.1 | 0.00 | 3.38 | 3.38 | 61 | 1015.4 |
| 20260906192013 | 28 | 143 | 11.3 | 24.1 | 0.00 | 3.38 | 3.38 | 62 | 1015.4 |
| 20260906191529 | 28 | 152 | 9.7 | 22.5 | 0.00 | 3.38 | 3.38 | 63 | 1015.4 |
| 20260906191017 | 28 | 157 | 12.9 | 24.1 | 0.00 | 3.38 | 3.38 | 63 | 1015.5 |
| 20260906190517 | 28 | 153 | 12.9 | 25.7 | 0.00 | 3.38 | 3.38 | 64 | 1015.5 |
| 20260906190035 | 28 | 163 | 8.0 | 27.4 | 0.00 | 3.38 | 3.38 | 64 | 1015.4 |
| 20260906185510 | 28 | 149 | 16.1 | 25.7 | 0.00 | 3.38 | 3.38 | 62 | 1015.4 |
| 20260906185010 | 28 | 179 | 16.1 | 25.7 | 0.00 | 3.38 | 3.38 | 63 | 1015.4 |
| 20260906184523 | 28 | 169 | 14.5 | 25.7 | 0.00 | 3.38 | 3.38 | 63 | 1015.4 |
| 20260906184014 | 28 | 112 | 14.5 | 25.7 | 0.00 | 3.38 | 3.38 | 63 | 1015.4 |
| 20260906183522 | 28 | 110 | 14.5 | 24.1 | 0.00 | 3.38 | 3.38 | 63 | 1015.4 |
| 20260906183038 | 28 | 132 | 12.9 | 29.0 | 0.00 | 3.38 | 3.38 | 63 | 1015.6 |
| 20260906182522 | 28 | 149 | 12.9 | 29.0 | 0.00 | 3.38 | 3.38 | 65 | 1015.6 |
| 20260906182021 | 28 | 132 | 12.9 | 24.1 | 0.00 | 3.38 | 3.38 | 65 | 1015.6 |
| 20260906181516 | 27 | 116 | 9.7 | 22.5 | 0.00 | 3.38 | 3.38 | 67 | 1015.7 |
| 20260906181015 | 27 | 116 | 11.3 | 27.4 | 0.00 | 3.38 | 3.38 | 67 | 1015.7 |
| 20260906180515 | 27 | 132 | 11.3 | 27.4 | 0.00 | 3.38 | 3.38 | 65 | 1015.9 |
| 20260906180038 | 27 | 164 | 11.3 | 27.4 | 0.00 | 3.38 | 3.38 | 67 | 1016.0 |
| 20260906175515 | 27 | 136 | 12.9 | 27.4 | 0.00 | 3.38 | 3.38 | 66 | 1016.0 |
| 20260906175020 | 27 | 107 | 12.9 | 27.4 | 0.00 | 3.38 | 3.38 | 67 | 1016.0 |
| 20260906174537 | 27 | 172 | 11.3 | 27.4 | 0.00 | 3.38 | 3.38 | 68 | 1016.1 |
| 20260906174020 | 26 | 156 | 14.5 | 27.4 | 0.00 | 3.38 | 3.38 | 67 | 1016.1 |
| 20260906173512 | 26 | 164 | 12.9 | 24.1 | 0.00 | 3.38 | 3.38 | 68 | 1016.2 |
| 20260906173023 | 26 | 159 | 11.3 | 33.8 | 0.00 | 3.38 | 3.38 | 69 | 1016.1 |
| 20260906172514 | 26 | 143 | 16.1 | 33.8 | 0.00 | 3.38 | 3.38 | 67 | 1016.2 |
| 20260906172015 | 26 | 130 | 14.5 | 27.4 | 0.00 | 3.38 | 3.38 | 69 | 1016.4 |
| 20260906171529 | 26 | 146 | 12.9 | 24.1 | 0.00 | 3.38 | 3.38 | 69 | 1016.5 |
| 20260906171017 | 26 | 158 | 14.5 | 27.4 | 0.00 | 3.38 | 3.38 | 72 | 1016.5 |
| 20260906170523 | 25 | 181 | 14.5 | 27.4 | 0.00 | 3.38 | 3.38 | 70 | 1016.6 |
| 20260906170033 | 25 | 126 | 17.7 | 25.7 | 0.00 | 3.38 | 3.38 | 69 | 1016.7 |
| 20260906165510 | 25 | 148 | 12.9 | 24.1 | 0.00 | 3.38 | 3.38 | 70 | 1016.7 |
| 20260906165021 | 25 | 120 | 16.1 | 24.1 | 0.00 | 3.38 | 3.38 | 69 | 1016.6 |
| 20260906164537 | 25 | 165 | 14.5 | 24.1 | 0.00 | 3.38 | 3.38 | 71 | 1016.8 |
| 20260906164014 | 25 | 147 | 14.5 | 24.1 | 0.00 | 3.38 | 3.38 | 72 | 1016.8 |
| 20260906163518 | 24 | 157 | 12.9 | 22.5 | 0.00 | 3.38 | 3.38 | 73 | 1016.8 |
| 20260906163037 | 24 | 153 | 12.9 | 24.1 | 0.00 | 3.38 | 3.38 | 74 | 1017.1 |
| 20260906162516 | 24 | 143 | 11.3 | 24.1 | 0.00 | 3.38 | 3.38 | 73 | 1017.0 |
| 20260906162018 | 24 | 141 | 14.5 | 20.9 | 0.00 | 3.38 | 3.38 | 75 | 1017.1 |
| 20260906161524 | 23 | 134 | 11.3 | 20.9 | 0.00 | 3.38 | 3.38 | 77 | 1017.2 |
| 20260906161015 | 23 | 165 | 12.9 | 22.5 | 0.00 | 3.38 | 3.38 | 78 | 1017.3 |
| 20260906160513 | 22 | 132 | 12.9 | 22.5 | 0.00 | 3.38 | 3.38 | 81 | 1017.2 |
| 20260906160045 | 22 | 137 | 9.7 | 19.3 | 0.00 | 3.38 | 3.38 | 81 | 1017.2 |
| 20260906155517 | 23 | 119 | 9.7 | 19.3 | 0.00 | 3.38 | 3.38 | 81 | 1017.1 |
| 20260906155015 | 22 | 131 | 8.0 | 12.9 | 0.00 | 3.38 | 3.38 | 83 | 1017.2 |
| 20260906154536 | 21 | 128 | 6.4 | 17.7 | 0.00 | 3.38 | 3.38 | 85 | 1017.3 |
| 20260906154020 | 21 | 142 | 6.4 | 17.7 | 0.00 | 3.38 | 3.38 | 85 | 1017.4 |
| 20260906153512 | 21 | 148 | 8.0 | 17.7 | 0.00 | 3.38 | 3.38 | 84 | 1017.6 |
| 20260906153034 | 21 | 121 | 6.4 | 12.9 | 0.00 | 3.38 | 3.38 | 86 | 1017.6 |
| 20260906152517 | 21 | 115 | 4.8 | 14.5 | 0.00 | 3.38 | 3.38 | 86 | 1017.6 |
| 20260906152020 | 21 | 129 | 6.4 | 17.7 | 0.00 | 3.38 | 3.38 | 86 | 1017.7 |
| 20260906151531 | 21 | 122 | 6.4 | 17.7 | 0.00 | 3.38 | 3.38 | 87 | 1017.7 |
| 20260906151009 | 21 | 107 | 4.8 | 14.5 | 0.00 | 3.38 | 3.38 | 87 | 1017.7 |
| 20260906150513 | 20 | 101 | 8.0 | 16.1 | 0.00 | 3.38 | 3.38 | 88 | 1017.9 |
| 20260906150040 | 20 | 94 | 9.7 | 16.1 | 0.00 | 3.38 | 3.38 | 89 | 1018.1 |
| 20260906145514 | 20 | 115 | 8.0 | 14.5 | 0.00 | 3.38 | 3.38 | 89 | 1018.4 |
| 20260906145014 | 20 | 96 | 8.0 | 14.5 | 0.00 | 3.38 | 3.38 | 89 | 1018.4 |
| 20260906144535 | 20 | 97 | 8.0 | 12.9 | 0.00 | 3.38 | 3.38 | 90 | 1018.4 |
| 20260906144019 | 20 | 36 | 8.0 | 14.5 | 0.00 | 3.38 | 3.38 | 91 | 1018.6 |
| 20260906143518 | 20 | 91 | 6.4 | 14.5 | 0.00 | 3.38 | 3.38 | 91 | 1018.8 |
| 20260906143022 | 20 | 66 | 6.4 | 16.1 | 0.00 | 3.38 | 3.38 | 91 | 1018.9 |
| 20260906142508 | 20 | 61 | 6.4 | 19.3 | 0.00 | 3.38 | 3.38 | 92 | 1018.9 |
| 20260906142008 | 20 | 28 | 6.4 | 19.3 | 0.00 | 3.38 | 3.38 | 92 | 1018.7 |
| 20260906141533 | 20 | 36 | 6.4 | 17.7 | 0.00 | 3.38 | 3.38 | 92 | 1018.5 |
| 20260906141014 | 20 | 61 | 8.0 | 19.3 | 0.00 | 3.38 | 3.38 | 92 | 1018.3 |
| 20260906140514 | 20 | 352 | 6.4 | 19.3 | 0.00 | 3.38 | 3.38 | 92 | 1018.3 |
| 20260906140039 | 20 | 33 | 9.7 | 20.9 | 0.00 | 3.38 | 3.38 | 92 | 1018.3 |
| 20260906135516 | 20 | 82 | 9.7 | 20.9 | 0.00 | 3.38 | 3.38 | 91 | 1018.3 |
| 20260906135008 | 20 | 68 | 9.7 | 17.7 | 0.00 | 3.38 | 3.38 | 91 | 1018.3 |
| 20260906134518 | 20 | 15 | 6.4 | 16.1 | 0.10 | 3.38 | 3.38 | 91 | 1018.1 |
| 20260906134012 | 20 | 71 | 6.4 | 11.3 | 0.13 | 3.38 | 3.38 | 91 | 1018.1 |
| 20260906133520 | 20 | 57 | 6.4 | 11.3 | 0.13 | 3.38 | 3.38 | 91 | 1017.9 |
| 20260906133030 | 20 | 51 | 4.8 | 8.0 | 0.13 | 3.38 | 3.38 | 91 | 1017.5 |
| 20260906132517 | 20 | 80 | 3.2 | 8.0 | 0.13 | 3.38 | 3.38 | 92 | 1017.5 |
| 20260906132022 | 20 | 42 | 3.2 | 9.7 | 0.13 | 3.38 | 3.38 | 92 | 1017.5 |
| 20260906131531 | 20 | 41 | 3.2 | 9.7 | 0.13 | 3.38 | 3.38 | 92 | 1017.6 |
| 20260906131013 | 20 | 52 | 4.8 | 9.7 | 0.15 | 3.38 | 3.38 | 1017.5 | |
| 20260906130511 | 20 | 51 | 3.2 | 11.3 | 0.23 | 3.38 | 3.38 | 92 | 1017.3 |
| 20260906130036 | 20 | 51 | 4.8 | 14.5 | 0.28 | 3.38 | 3.38 | 92 | 1017.1 |
| 20260906125519 | 20 | 103 | 8.0 | 14.5 | 0.41 | 3.38 | 3.38 | 92 | 1017.0 |
| 20260906125017 | 20 | 96 | 8.0 | 14.5 | 0.58 | 3.38 | 3.38 | 92 | 1016.8 |
| 20260906124530 | 20 | 86 | 8.0 | 16.1 | 0.66 | 3.28 | 3.28 | 92 | 1016.7 |
| 20260906124014 | 20 | 102 | 8.0 | 16.1 | 0.86 | 3.25 | 3.25 | 91 | 1016.8 |
| 20260906123520 | 20 | 96 | 8.0 | 17.7 | 0.94 | 3.25 | 3.25 | 91 | 1016.6 |
| 20260906123034 | 20 | 86 | 8.0 | 20.9 | 0.97 | 3.25 | 3.25 | 91 | 1016.6 |
| 20260906122512 | 20 | 69 | 12.9 | 22.5 | 1.02 | 3.25 | 3.25 | 91 | 1016.1 |
| 20260906122014 | 20 | 74 | 11.3 | 22.5 | 1.12 | 3.25 | 3.25 | 90 | 1016.2 |
| 20260906121527 | 20 | 108 | 11.3 | 20.9 | 1.37 | 3.25 | 3.25 | 90 | 1016.3 |
| 20260906121014 | 20 | 117 | 12.9 | 20.9 | 1.55 | 3.23 | 3.23 | 89 | 1016.4 |
| 20260906120518 | 20 | 130 | 8.0 | 12.9 | 1.63 | 3.15 | 3.15 | 86 | 1016.6 |
| 20260906120041 | 20 | 136 | 6.4 | 9.7 | 1.73 | 3.10 | 3.10 | 88 | 1017.2 |
| 20260906115515 | 20 | 168 | 3.2 | 6.4 | 1.78 | 2.95 | 2.95 | 90 | 1017.5 |
| 20260906115016 | 20 | 167 | 1.6 | 6.4 | 1.68 | 2.79 | 2.79 | 91 | 1017.5 |
| 20260906114533 | 20 | 98 | 1.6 | 16.1 | 1.55 | 2.62 | 2.62 | 91 | 1017.4 |
| 20260906114016 | 20 | 346 | 6.4 | 16.1 | 1.40 | 2.39 | 2.39 | 91 | 1017.5 |
| 20260906113517 | 20 | 360 | 8.0 | 17.7 | 1.40 | 2.31 | 2.31 | 91 | 1017.7 |
| 20260906113030 | 20 | 15 | 6.4 | 17.7 | 1.40 | 2.29 | 2.29 | 91 | 1017.7 |
| 20260906112519 | 20 | 55 | 8.0 | 20.9 | 1.40 | 2.24 | 2.24 | 91 | 1018.1 |
| 20260906112018 | 20 | 33 | 6.4 | 20.9 | 1.32 | 2.13 | 2.13 | 91 | 1018.2 |
| 20260906111534 | 20 | 51 | 8.0 | 14.5 | 1.14 | 1.88 | 1.88 | 91 | 1018.1 |
| 20260906111019 | 20 | 26 | 3.2 | 16.1 | 1.17 | 1.68 | 1.68 | 91 | 1018.1 |
| 20260906110513 | 20 | 51 | 4.8 | 16.1 | 1.32 | 1.52 | 1.52 | 91 | 1017.9 |
| 20260906110037 | 20 | 360 | 8.0 | 14.5 | 1.32 | 1.37 | 1.37 | 91 | 1017.3 |
| 20260906105515 | 20 | 40 | 4.8 | 14.5 | 1.19 | 1.19 | 1.19 | 91 | 1017.6 |
| 20260906105017 | 20 | 10 | 4.8 | 9.7 | 1.12 | 1.12 | 1.12 | 90 | 1017.9 |
| 20260906104529 | 20 | 50 | 3.2 | 14.5 | 1.07 | 1.07 | 1.07 | 90 | 1018.0 |
| 20260906104014 | 20 | 345 | 4.8 | 19.3 | 0.99 | 0.99 | 0.99 | 90 | 1017.6 |
| 20260906103516 | 20 | 346 | 6.4 | 20.9 | 0.91 | 0.91 | 0.91 | 90 | 1017.4 |
| 20260906103033 | 20 | 5 | 8.0 | 22.5 | 0.89 | 0.89 | 0.89 | 89 | 1017.1 |
| 20260906102514 | 20 | 14 | 9.7 | 22.5 | 0.84 | 0.84 | 0.84 | 89 | 1016.7 |
| 20260906102019 | 20 | 360 | 9.7 | 17.7 | 0.79 | 0.79 | 0.79 | 89 | 1016.9 |
| 20260906101533 | 20 | 55 | 6.4 | 17.7 | 0.74 | 0.74 | 0.74 | 89 | 1016.5 |
| 20260906101018 | 20 | 9 | 4.8 | 17.7 | 0.51 | 0.51 | 0.51 | 88 | 1016.3 |
| 20260906100519 | 21 | 344 | 6.4 | 20.9 | 0.20 | 0.20 | 0.20 | 86 | 1016.7 |
| 20260906100032 | 21 | 40 | 8.0 | 20.9 | 0.05 | 0.05 | 0.05 | 83 | 1016.5 |
| 20260906095518 | 22 | 13 | 9.7 | 24.1 | 0.00 | 0.00 | 0.00 | 79 | 1016.3 |
| 20260906095021 | 22 | 13 | 11.3 | 24.1 | 0.00 | 0.00 | 0.00 | 77 | 1016.2 |
| 20260906094531 | 22 | 360 | 8.0 | 22.5 | 0.00 | 0.00 | 0.00 | 75 | 1016.1 |
| 20260906094017 | 23 | 342 | 12.9 | 25.7 | 0.00 | 0.00 | 0.00 | 72 | 1015.8 |
| 20260906093516 | 23 | 9 | 11.3 | 27.4 | 0.00 | 0.00 | 0.00 | 70 | 1016.1 |
| 20260906093008 | 23 | 346 | 12.9 | 27.4 | 0.00 | 0.00 | 0.00 | 69 | 1015.9 |
| 20260906092503 | 23 | 11 | 12.9 | 20.9 | 0.00 | 0.00 | 0.00 | 70 | 1015.6 |
| 20260906092003 | 23 | 325 | 6.4 | 17.7 | 0.00 | 0.00 | 0.00 | 71 | 1015.6 |
| 20260906091503 | 23 | 322 | 4.8 | 16.1 | 0.00 | 0.00 | 0.00 | 73 | 1015.5 |
| 20260906091003 | 22 | 332 | 4.8 | 12.9 | 0.00 | 0.00 | 0.00 | 73 | 1015.3 |
| 20260906090506 | 22 | 132 | 0.0 | 4.8 | 0.00 | 0.00 | 0.00 | 73 | 1014.6 |
| 20260906090004 | 22 | 133 | 3.2 | 4.8 | 0.00 | 0.00 | 0.00 | 72 | 1014.4 |
| 20260906085504 | 22 | 152 | 1.6 | 4.8 | 0.00 | 0.00 | 0.00 | 72 | 1014.2 |
| 20260906085003 | 22 | 148 | 3.2 | 4.8 | 0.00 | 0.00 | 0.00 | 72 | 1014.3 |
| 20260906084510 | 22 | 136 | 1.6 | 4.8 | 0.00 | 0.00 | 0.00 | 72 | 1014.0 |
| 20260906084007 | 22 | 160 | 1.6 | 4.8 | 0.00 | 0.00 | 0.00 | 72 | 1014.1 |
| 20260906083504 | 22 | 153 | 1.6 | 6.4 | 0.00 | 0.00 | 0.00 | 73 | 1014.1 |
| 20260906083006 | 22 | 132 | 3.2 | 8.0 | 0.00 | 0.00 | 0.00 | 73 | 1013.9 |
| 20260906082503 | 22 | 127 | 4.8 | 8.0 | 0.00 | 0.00 | 0.00 | 72 | 1013.9 |
| 20260906082009 | 22 | 135 | 3.2 | 6.4 | 0.00 | 0.00 | 0.00 | 72 | 1014.0 |
| 20260906081519 | 23 | 141 | 3.2 | 9.7 | 0.00 | 0.00 | 0.00 | 71 | 1014.0 |
| 20260906081007 | 23 | 156 | 4.8 | 9.7 | 0.00 | 0.00 | 0.00 | 71 | 1014.0 |
| 20260906080508 | 23 | 161 | 3.2 | 8.0 | 0.00 | 0.00 | 0.00 | 71 | 1014.0 |
| 20260906080007 | 23 | 137 | 3.2 | 6.4 | 0.00 | 0.00 | 0.00 | 72 | 1014.0 |
| 20260906075503 | 23 | 158 | 4.8 | 6.4 | 0.00 | 0.00 | 0.00 | 71 | 1014.2 |
| 20260906075007 | 23 | 140 | 3.2 | 6.4 | 0.00 | 0.00 | 0.00 | 71 | 1014.3 |
| 20260906074504 | 23 | 157 | 1.6 | 6.4 | 0.00 | 0.00 | 0.00 | 72 | 1014.4 |
| 20260906074003 | 22 | 148 | 3.2 | 6.4 | 0.00 | 0.00 | 0.00 | 72 | 1014.5 |
| 20260906073506 | 23 | 161 | 3.2 | 4.8 | 0.00 | 0.00 | 0.00 | 71 | 1014.6 |
| 20260906073010 | 23 | 133 | 3.2 | 8.0 | 0.00 | 0.00 | 0.00 | 71 | 1014.5 |
| 20260906072504 | 23 | 132 | 3.2 | 8.0 | 0.00 | 0.00 | 0.00 | 70 | 1014.7 |
| 20260906072005 | 23 | 158 | 3.2 | 6.4 | 0.00 | 0.00 | 0.00 | 70 | 1014.7 |
| 20260906071505 | 23 | 144 | 3.2 | 8.0 | 0.00 | 0.00 | 0.00 | 69 | 1014.7 |
| 20260906071006 | 23 | 148 | 3.2 | 8.0 | 0.00 | 0.00 | 0.00 | 69 | 1014.7 |
| 20260906070505 | 23 | 159 | 1.6 | 8.0 | 0.00 | 0.00 | 0.00 | 69 | 1014.7 |
| 20260906070003 | 23 | 148 | 3.2 | 8.0 | 0.00 | 0.00 | 0.00 | 68 | 1014.8 |
| 20260906065507 | 23 | 155 | 4.8 | 8.0 | 0.00 | 0.00 | 0.00 | 68 | 1014.7 |
| 20260906065010 | 23 | 122 | 3.2 | 8.0 | 0.00 | 0.00 | 0.00 | 68 | 1014.7 |
| 20260906064509 | 23 | 140 | 3.2 | 6.4 | 0.00 | 0.00 | 0.00 | 68 | 1014.8 |
| 20260906064007 | 23 | 167 | 1.6 | 6.4 | 0.00 | 0.00 | 0.00 | 68 | 1014.8 |
| 20260906063503 | 23 | 146 | 3.2 | 6.4 | 0.00 | 0.00 | 0.00 | 69 | 1014.9 |
| 20260906063010 | 23 | 138 | 1.6 | 4.8 | 0.00 | 0.00 | 0.00 | 69 | 1014.9 |
| 20260906062508 | 23 | 153 | 3.2 | 8.0 | 0.00 | 0.00 | 0.00 | 69 | 1014.8 |
| 20260906062006 | 23 | 124 | 3.2 | 8.0 | 0.00 | 0.00 | 0.00 | 69 | 1014.7 |
| 20260906061514 | 23 | 175 | 3.2 | 8.0 | 0.00 | 0.00 | 0.00 | 69 | 1014.6 |
| 20260906061005 | 23 | 143 | 3.2 | 6.4 | 0.00 | 0.00 | 0.00 | 68 | 1014.7 |
| 20260906060506 | 23 | 146 | 3.2 | 4.8 | 0.00 | 0.00 | 0.00 | 68 | 1014.7 |
| 20260906060008 | 23 | 134 | 3.2 | 6.4 | 0.00 | 0.00 | 0.00 | 68 | 1014.7 |
| 20260906055506 | 23 | 142 | 1.6 | 8.0 | 0.00 | 0.00 | 0.00 | 68 | 1014.6 |
| 20260906055006 | 23 | 156 | 3.2 | 8.0 | 0.00 | 0.00 | 0.00 | 68 | 1014.5 |
| 20260906054505 | 23 | 161 | 1.6 | 6.4 | 0.00 | 0.00 | 0.00 | 68 | 1014.5 |
| 20260906054004 | 23 | 139 | 3.2 | 6.4 | 0.00 | 0.00 | 0.00 | 68 | 1014.5 |
| 20260906053504 | 23 | 181 | 3.2 | 6.4 | 0.00 | 0.00 | 0.00 | 68 | 1014.5 |
| 20260906053011 | 24 | 157 | 1.6 | 4.8 | 0.00 | 0.00 | 0.00 | 68 | 1014.6 |
| 20260906052509 | 24 | 151 | 3.2 | 4.8 | 0.00 | 0.00 | 0.00 | 67 | 1014.6 |
| 20260906052008 | 24 | 146 | 3.2 | 4.8 | 0.00 | 0.00 | 0.00 | 68 | 1014.7 |
| 20260906051510 | 24 | 157 | 1.6 | 4.8 | 0.00 | 0.00 | 0.00 | 68 | 1014.6 |
| 20260906051007 | 24 | 142 | 1.6 | 4.8 | 0.00 | 0.00 | 0.00 | 68 | 1014.7 |
| 20260906050505 | 24 | 163 | 0.0 | 3.2 | 0.00 | 0.00 | 0.00 | 68 | 1014.7 |
| 20260906050010 | 24 | 157 | 1.6 | 6.4 | 0.00 | 0.00 | 0.00 | 67 | 1014.7 |
| 20260906045510 | 24 | 140 | 3.2 | 6.4 | 0.00 | 0.00 | 0.00 | 68 | 1014.5 |
| 20260906045007 | 23 | 177 | 1.6 | 6.4 | 0.00 | 0.00 | 0.00 | 68 | 1014.5 |
| 20260906044515 | 23 | 138 | 1.6 | 4.8 | 0.00 | 0.00 | 0.00 | 68 | 1014.5 |
| 20260906044015 | 24 | 155 | 1.6 | 4.8 | 0.00 | 0.00 | 0.00 | 67 | 1014.5 |
| 20260906043513 | 24 | 133 | 3.2 | 6.4 | 0.00 | 0.00 | 0.00 | 66 | 1014.6 |
| 20260906043012 | 25 | 163 | 3.2 | 6.4 | 0.00 | 0.00 | 0.00 | 66 | 1014.5 |
| 20260906042503 | 25 | 147 | 1.6 | 6.4 | 0.00 | 0.00 | 0.00 | 66 | 1014.5 |
| 20260906042008 | 25 | 161 | 1.6 | 6.4 | 0.00 | 0.00 | 0.00 | 66 | 1014.7 |
| 20260906041510 | 25 | 153 | 1.6 | 6.4 | 0.00 | 0.00 | 0.00 | 66 | 1014.7 |
| 20260906041008 | 25 | 146 | 3.2 | 6.4 | 0.00 | 0.00 | 0.00 | 65 | 1014.8 |
| 20260906040509 | 25 | 143 | 1.6 | 3.2 | 0.00 | 0.00 | 0.00 | 65 | 1014.9 |
| 20260906040012 | 25 | 156 | 0.0 | 4.8 | 0.00 | 0.00 | 0.00 | 65 | 1014.8 |
| 20260906035508 | 25 | 153 | 1.6 | 6.4 | 0.00 | 0.00 | 0.00 | 64 | 1014.8 |
| 20260906035011 | 25 | 142 | 3.2 | 6.4 | 0.00 | 0.00 | 0.00 | 63 | 1014.6 |
| 20260906034508 | 25 | 157 | 1.6 | 6.4 | 0.00 | 0.00 | 0.00 | 63 | 1014.5 |
| 20260906034006 | 25 | 150 | 1.6 | 8.0 | 0.00 | 0.00 | 0.00 | 63 | 1014.5 |
| 20260906033508 | 26 | 153 | 3.2 | 8.0 | 0.00 | 0.00 | 0.00 | 62 | 1014.5 |
| 20260906033016 | 26 | 167 | 3.2 | 8.0 | 0.00 | 0.00 | 0.00 | 61 | 1014.5 |
| 20260906032510 | 26 | 165 | 3.2 | 8.0 | 0.00 | 0.00 | 0.00 | 62 | 1014.5 |
| 20260906032012 | 26 | 147 | 1.6 | 4.8 | 0.00 | 0.00 | 0.00 | 62 | 1014.5 |
| 20260906031531 | 26 | 149 | 3.2 | 4.8 | 0.00 | 0.00 | 0.00 | 61 | 1014.5 |
| 20260906031010 | 26 | 135 | 1.6 | 4.8 | 0.00 | 0.00 | 0.00 | 60 | 1014.4 |
| 20260906030509 | 26 | 147 | 3.2 | 6.4 | 0.00 | 0.00 | 0.00 | 60 | 1014.3 |
| 20260906030009 | 26 | 156 | 1.6 | 6.4 | 0.00 | 0.00 | 0.00 | 60 | 1014.3 |
| 20260906025509 | 26 | 142 | 1.6 | 6.4 | 0.00 | 0.00 | 0.00 | 60 | 1014.2 |
| 20260906025010 | 26 | 150 | 1.6 | 3.2 | 0.00 | 0.00 | 0.00 | 60 | 1014.2 |
| 20260906024522 | 26 | 146 | 0.0 | 4.8 | 0.00 | 0.00 | 0.00 | 60 | 1014.0 |
| 20260906024012 | 27 | 144 | 1.6 | 8.0 | 0.00 | 0.00 | 0.00 | 59 | 1013.8 |
| 20260906023510 | 27 | 200 | 0.0 | 8.0 | 0.00 | 0.00 | 0.00 | 59 | 1013.8 |
| 20260906023019 | 27 | 193 | 1.6 | 8.0 | 0.00 | 0.00 | 0.00 | 59 | 1013.8 |
| 20260906022508 | 27 | 188 | 1.6 | 8.0 | 0.00 | 0.00 | 0.00 | 58 | 1013.8 |
| 20260906022008 | 27 | 144 | 1.6 | 8.0 | 0.00 | 0.00 | 0.00 | 58 | 1013.7 |
| 20260906021516 | 27 | 139 | 4.8 | 9.7 | 0.00 | 0.00 | 0.00 | 57 | 1013.6 |
| 20260906021009 | 27 | 143 | 4.8 | 9.7 | 0.00 | 0.00 | 0.00 | 57 | 1013.6 |
| 20260906020512 | 27 | 126 | 4.8 | 9.7 | 0.00 | 0.00 | 0.00 | 56 | 1013.5 |
| 20260906020021 | 28 | 136 | 3.2 | 9.7 | 0.00 | 0.00 | 0.00 | 56 | 1013.5 |
| 20260906015515 | 28 | 180 | 1.6 | 6.4 | 0.00 | 0.00 | 0.00 | 56 | 1013.4 |
| 20260906015013 | 28 | 184 | 0.0 | 8.0 | 0.00 | 0.00 | 0.00 | 55 | 1013.4 |
| 20260906014514 | 28 | 191 | 1.6 | 11.3 | 0.00 | 0.00 | 0.00 | 54 | 1013.5 |
| 20260906014010 | 29 | 163 | 1.6 | 12.9 | 0.00 | 0.00 | 0.00 | 53 | 1013.5 |
| 20260906013507 | 29 | 152 | 3.2 | 14.5 | 0.00 | 0.00 | 0.00 | 52 | 1013.6 |
| 20260906013016 | 30 | 178 | 6.4 | 17.7 | 0.00 | 0.00 | 0.00 | 51 | 1013.6 |
| 20260906012512 | 30 | 127 | 8.0 | 17.7 | 0.00 | 0.00 | 0.00 | 50 | 1013.6 |
| 20260906012013 | 30 | 176 | 4.8 | 19.3 | 0.00 | 0.00 | 0.00 | 49 | 1013.6 |
| 20260906011518 | 30 | 169 | 11.3 | 19.3 | 0.00 | 0.00 | 0.00 | 48 | 1013.6 |
| 20260906011019 | 31 | 157 | 8.0 | 17.7 | 0.00 | 0.00 | 0.00 | 48 | 1013.6 |
| 20260906010508 | 31 | 146 | 4.8 | 16.1 | 0.00 | 0.00 | 0.00 | 48 | 1013.6 |
| 20260906010016 | 31 | 133 | 6.4 | 16.1 | 0.00 | 0.00 | 0.00 | 47 | 1013.4 |
| 20260906005514 | 31 | 169 | 8.0 | 19.3 | 0.00 | 0.00 | 0.00 | 46 | 1013.4 |
| 20260906005012 | 31 | 152 | 9.7 | 24.1 | 0.00 | 0.00 | 0.00 | 46 | 1013.2 |
| 20260906004520 | 32 | 161 | 8.0 | 22.5 | 0.00 | 0.00 | 0.00 | 45 | 1013.2 |
| 20260906004013 | 32 | 153 | 12.9 | 20.9 | 0.00 | 0.00 | 0.00 | 45 | 1012.9 |
| 20260906003514 | 32 | 150 | 6.4 | 20.9 | 0.00 | 0.00 | 0.00 | 44 | 1012.9 |
| 20260906003023 | 32 | 163 | 11.3 | 20.9 | 0.00 | 0.00 | 0.00 | 44 | 1012.8 |
| 20260906002508 | 33 | 121 | 6.4 | 16.1 | 0.00 | 0.00 | 0.00 | 43 | 1012.9 |
| 20260906002009 | 33 | 121 | 9.7 | 16.1 | 0.00 | 0.00 | 0.00 | 41 | 1012.9 |
| 20260906001519 | 33 | 134 | 6.4 | 8.0 | 0.00 | 0.00 | 0.00 | 38 | 1012.7 |
| 20260906001013 | 33 | 148 | 4.8 | 16.1 | 0.00 | 0.00 | 0.00 | 37 | 1012.7 |
| 20260906000512 | 33 | 155 | 4.8 | 16.1 | 0.00 | 0.00 | 0.00 | 36 | 1012.7 |
| 20260906000025 | 33 | 151 | 6.4 | 14.5 | 0.00 | 0.00 | 0.00 | 36 | 1012.7 |
| 20260905235510 | 33 | 164 | 4.8 | 12.9 | 0.00 | 0.00 | 0.00 | 36 | 1012.7 |
| 20260905235018 | 33 | 146 | 4.8 | 12.9 | 0.00 | 0.00 | 0.00 | 36 | 1012.6 |
| 20260905234513 | 34 | 163 | 4.8 | 12.9 | 0.00 | 0.00 | 0.00 | 36 | 1012.7 |
| 20260905234017 | 34 | 150 | 6.4 | 17.7 | 0.00 | 0.00 | 0.00 | 35 | 1012.8 |
| 20260905233512 | 34 | 124 | 8.0 | 19.3 | 0.00 | 0.00 | 0.00 | 36 | 1012.7 |
| 20260905233030 | 34 | 146 | 9.7 | 19.3 | 0.00 | 0.00 | 0.00 | 36 | 1012.6 |
| 20260905232513 | 35 | 149 | 8.0 | 19.3 | 0.00 | 0.00 | 0.00 | 36 | 1012.4 |
| 20260905232016 | 35 | 142 | 12.9 | 19.3 | 0.00 | 0.00 | 0.00 | 35 | 1012.6 |
| 20260905231521 | 35 | 127 | 9.7 | 17.7 | 0.00 | 0.00 | 0.00 | 35 | 1012.5 |
| 20260905231012 | 35 | 179 | 6.4 | 20.9 | 0.00 | 0.00 | 0.00 | 36 | 1012.5 |
| 20260905230514 | 35 | 126 | 9.7 | 20.9 | 0.00 | 0.00 | 0.00 | 36 | 1012.4 |
| 20260905230021 | 35 | 126 | 9.7 | 17.7 | 0.00 | 0.00 | 0.00 | 36 | 1012.4 |
| 20260905225512 | 35 | 125 | 9.7 | 14.5 | 0.00 | 0.00 | 0.00 | 36 | 1012.4 |
| 20260905225014 | 35 | 119 | 8.0 | 17.7 | 0.00 | 0.00 | 0.00 | 37 | 1012.4 |
| 20260905224523 | 35 | 132 | 8.0 | 20.9 | 0.00 | 0.00 | 0.00 | 36 | 1012.4 |
| 20260905224014 | 35 | 111 | 8.0 | 20.9 | 0.00 | 0.00 | 0.00 | 37 | 1012.3 |
| 20260905223513 | 35 | 146 | 11.3 | 20.9 | 0.00 | 0.00 | 0.00 | 34 | 1012.5 |
| 20260905223034 | 36 | 128 | 8.0 | 20.9 | 0.00 | 0.00 | 0.00 | 35 | 1012.5 |
| 20260905222510 | 35 | 145 | 11.3 | 19.3 | 0.00 | 0.00 | 0.00 | 34 | 1012.5 |
| 20260905222014 | 35 | 142 | 9.7 | 19.3 | 0.00 | 0.00 | 0.00 | 34 | 1012.5 |
| 20260905221538 | 36 | 127 | 11.3 | 20.9 | 0.00 | 0.00 | 0.00 | 36 | 1012.4 |
| 20260905221012 | 36 | 125 | 9.7 | 25.7 | 0.00 | 0.00 | 0.00 | 34 | 1012.5 |
| 20260905220516 | 36 | 109 | 16.1 | 25.7 | 0.00 | 0.00 | 0.00 | 35 | 1012.4 |
| 20260905220028 | 35 | 171 | 8.0 | 19.3 | 0.00 | 0.00 | 0.00 | 36 | 1012.3 |
| 20260905215522 | 36 | 55 | 4.8 | 20.9 | 0.00 | 0.00 | 0.00 | 37 | 1012.5 |
| 20260905215015 | 36 | 130 | 11.3 | 20.9 | 0.00 | 0.00 | 0.00 | 36 | 1012.7 |
| 20260905214517 | 36 | 101 | 8.0 | 20.9 | 0.00 | 0.00 | 0.00 | 37 | 1012.8 |
| 20260905214012 | 35 | 132 | 4.8 | 24.1 | 0.00 | 0.00 | 0.00 | 37 | 1013.0 |
| 20260905213512 | 35 | 167 | 12.9 | 24.1 | 0.00 | 0.00 | 0.00 | 36 | 1013.0 |
| 20260905213025 | 36 | 135 | 8.0 | 19.3 | 0.00 | 0.00 | 0.00 | 37 | 1013.1 |
| 20260905212513 | 36 | 104 | 12.9 | 19.3 | 0.00 | 0.00 | 0.00 | 36 | 1013.1 |
| 20260905212002 | 35 | 96 | 9.7 | 19.3 | 0.00 | 0.00 | 0.00 | 37 | 1013.2 |
| 20260905211534 | 36 | 134 | 12.9 | 22.5 | 0.00 | 0.00 | 0.00 | 37 | 1013.3 |
| 20260905211010 | 36 | 153 | 12.9 | 22.5 | 0.00 | 0.00 | 0.00 | 35 | 1013.3 |
| 20260905210510 | 36 | 107 | 9.7 | 22.5 | 0.00 | 0.00 | 0.00 | 36 | 1013.3 |
| 20260905210023 | 36 | 132 | 12.9 | 22.5 | 0.00 | 0.00 | 0.00 | 36 | 1013.4 |
| 20260905205513 | 36 | 116 | 11.3 | 19.3 | 0.00 | 0.00 | 0.00 | 35 | 1013.5 |
| 20260905205016 | 36 | 130 | 11.3 | 19.3 | 0.00 | 0.00 | 0.00 | 35 | 1013.5 |
| 20260905204528 | 36 | 121 | 11.3 | 17.7 | 0.00 | 0.00 | 0.00 | 36 | 1013.6 |
| 20260905204004 | 36 | 143 | 9.7 | 19.3 | 0.00 | 0.00 | 0.00 | 35 | 1013.6 |
| 20260905203511 | 36 | 92 | 11.3 | 25.7 | 0.00 | 0.00 | 0.00 | 34 | 1013.6 |
| 20260905203018 | 36 | 87 | 12.9 | 25.7 | 0.00 | 0.00 | 0.00 | 34 | 1013.7 |
| 20260905202513 | 35 | 92 | 11.3 | 27.4 | 0.00 | 0.00 | 0.00 | 34 | 1013.6 |
| 20260905202016 | 36 | 126 | 11.3 | 27.4 | 0.00 | 0.00 | 0.00 | 33 | 1013.8 |
| 20260905201535 | 36 | 92 | 9.7 | 24.1 | 0.00 | 0.00 | 0.00 | 34 | 1013.8 |